Location: Hamayl? Da??
(36.7028°N, 30.1716°E)
Time: 12:37:51
(UTC+00:00)

SeaSat 1 - Pass Details

Date: 04 August 2024
Orbit: 739 x 743 km, 108.0° (Epoch: 11 September)

Event Time Altitude Azimuth Distance (km) Brightness Sun altitude
Exits shadow 22:36:47 28° 12° (NNE) 1,366 4.2 -35.9°
Drops below altitude 10° 22:39:26 10° 350° (N) 2,259 5.6 -35.8°
Sets 22:41:48 0° 344° (NNW) 3,187 6.5 -35.7°
